Showing default

AE1C, 62649

Orbit data source: Space-Track

AE1C, 62649 is a payload satellite owned by ArkEdge (JP) in SSO that was launched on Tue, 14 Jan 2025 UTC via an FALCON 9 launch vehicle from the Air Force Western Test Range (AFWTR). Payload-class satellites include a variety of spacecraft equipped with specific instruments for various scientific and technological missions. These include communications satellites like Starlink; space stations such as the ISS; scientific satellites like the Hubble; Earth observation satellites from companies like Planet Labs, Umbra, and HawkEye 360; GPS; miniature CubeSats for education and research; and military/defense satellites.

Loading next visibility...
Identifier
62649, 2025-009AS
Orbit
SSO
Country
Flag of JPJP / JPN
Related business
Manufacturer
ArkEdge
Mission
Operational Commercial Technology
Bus & Motor
CUBESAT 6U, Unknown motor
Mass
~10 kg wet, ~10 kg dry
Launch date (UTC)
2025-01-14 (1 year ago)
Launch vehicle
FALCON 9
Launch site
Air Force Western Test Range (AFWTR)
Object type
Payload
Rocket body
Debris
Shape & HBR
Box + 2 Pan, 0.3 m
Radar Cross Section
0.080 m², Medium (>0.1 m² and < 1m²)

Expand to show TLE details & history
Last TLE update: 14 hours ago

TLE from 14 hours ago
0 AE1C
1 62649U 25009AS  26126.19980207  .00029260  00000-0  66143-3 0  9998
2 62649  97.4024 213.0127 0002555 108.9735 251.1790 15.43126791 72802
Epoch: 2026-05-06T04:47Z
TLE epoch observation values (Epoch: 2026-05-06T04:47:42.898Z)
Latitude
-0.00002°
Longitude
-82.97975°
Altitude
440.572 km
Speed
7.647 km/s
True Right ascension
14h 12m 03s
True Declination
0° 00' 00"
Sunlit
Object was in full shadow at epoch
Visualization orbit readout
Latitude
Unknown
Longitude
Unknown
Altitude
Unknown
Speed
Unknown
Apparent Right ascension
Unknown
Apparent Declination
Unknown
Sunlit
N/A
Visualization observer readout
Local Sidereal Time
03:08:24
Azimuth
Unknown
Elevation
Unknown
Doppler factor
Unknown
Orbital elements
Apogee altitude
435.563 km
Perigee altitude
432.082 km
Semi-major axis
6,811.96 km
Eccentricity
0.00026
Inclination
97.4024°
RAAN
213.0127°
Arg. of periapsis
108.9735°
True anomaly
251.15129°
Mean anomaly
251.179°
Eccentric anomaly
251.16514°
Mean motion
3.86042 °/min
Orbital period
93.25 mins
BSTAR
0.00066143
Loading maneuver chart data...
Computing Atmospheric mass density...
Loading historical data...
Loading historical data...
Loading historical data...
Loading historical data...
Loading historical data...
Loading historical data...
Loading historical data...

Documentation

Showing up to 5 results
|